#timestamp,LO_Frequency,Hit,Temp,Hum 
1479513615.7,286046597.1,N,0.0,0.0
1479513635.6,286046596.5,N,0.0,0.0
1479513655.4,286046599.1,N,0.0,0.0
1479513675.2,286046596.8,N,0.0,0.0
1479513695.1,286046599.5,N,0.0,0.0
1479513696.0,286046599.5,N,0.0,0.0
1479513715.8,286046599.4,N,0.0,0.0
1479513735.6,286046598.8,N,0.0,0.0
1479513755.5,286046599.4,N,0.0,0.0
1479513775.3,286046598.8,N,0.0,0.0
1479513795.2,286046599.3,N,0.0,0.0
1479513815.9,286046598.4,N,0.0,0.0
1479513835.7,286046598.4,N,0.0,0.0
1479513855.6,286046598.3,N,0.0,0.0
1479513875.4,286046598.8,N,0.0,0.0
1479513895.3,286046598.5,N,0.0,0.0
1479513915.1,286046599.0,N,0.0,0.0
1479513916.0,286046599.0,N,0.0,0.0
1479513935.8,286046598.4,N,0.0,0.0
1479513955.7,286046598.3,N,0.0,0.0
1479513975.5,286046601.2,N,0.0,0.0
1479513995.3,286046598.1,N,0.0,0.0
1479514015.2,286046598.2,N,0.0,0.0
1479514035.0,286046598.6,N,0.0,0.0
1479514035.9,286046598.6,N,0.0,0.0
1479514055.8,286046600.3,N,0.0,0.0
1479514075.6,286046600.8,N,0.0,0.0
1479514095.4,286046600.8,N,0.0,0.0
1479514115.3,286046601.0,N,0.0,0.0
1479514135.1,286046599.7,N,0.0,0.0
1479514155.8,286046599.9,N,0.0,0.0
1479514175.7,286046599.7,N,0.0,0.0
1479514195.5,286046600.1,N,0.0,0.0
1479514215.4,286046602.0,N,0.0,0.0
1479514235.2,286046602.4,N,0.0,0.0
1479514255.0,286046599.7,N,0.0,0.0
1479514255.9,286046599.7,N,0.0,0.0
1479514275.8,286046602.3,N,0.0,0.0
1479514295.6,286046601.5,N,0.0,0.0
1479514315.4,286046602.1,N,0.0,0.0
1479514335.3,286046602.0,N,0.0,0.0
1479514355.1,286046602.6,N,0.0,0.0
1479514375.9,286046601.3,N,0.0,0.0
1479514395.7,286046601.6,N,0.0,0.0
1479514415.5,286046601.5,N,0.0,0.0
1479514435.4,286046601.7,N,0.0,0.0
1479514455.2,286046604.2,N,0.0,0.0
1479514475.0,286046601.7,N,0.0,0.0
1479514476.0,286046601.7,N,0.0,0.0
1479514495.8,286046604.3,N,0.0,0.0
1479514515.6,286046604.0,N,0.0,0.0
1479514535.5,286046605.6,N,0.0,0.0
1479514555.3,286046602.9,N,0.0,0.0
1479514575.1,286046605.5,N,0.0,0.0
1479514595.9,286046606.0,N,0.0,0.0
1479514615.7,286046605.1,N,0.0,0.0
1479514635.5,286046602.9,N,0.0,0.0
1479514655.4,286046603.0,N,0.0,0.0
1479514675.2,286046603.2,N,0.0,0.0
1479514695.1,286046605.6,N,0.0,0.0
1479514696.0,286046605.6,N,0.0,0.0
1479514715.8,286046605.6,N,0.0,0.0
1479514735.6,286046605.6,N,0.0,0.0
1479514755.5,286046605.3,N,0.0,0.0
1479514775.3,286046605.0,N,0.0,0.0
1479514795.2,286046605.5,N,0.0,0.0
1479514815.9,286046605.5,N,0.0,0.0
1479514835.7,286046605.9,N,0.0,0.0
1479514855.6,286046604.6,N,0.0,0.0
1479514875.4,286046604.6,N,0.0,0.0
1479514895.2,286046605.3,N,0.0,0.0
1479514915.1,286046605.2,N,0.0,0.0
1479514916.0,286046605.2,N,0.0,0.0
1479514935.8,286046604.9,N,0.0,0.0
1479514955.7,286046605.3,N,0.0,0.0
1479514975.5,286046605.3,N,0.0,0.0
1479514995.3,286046605.1,N,0.0,0.0
1479515015.2,286046604.9,N,0.0,0.0
1479515035.0,286046605.1,N,0.0,0.0
1479515035.9,286046605.1,N,0.0,0.0
1479515055.8,286046604.6,N,0.0,0.0
1479515075.6,286046607.2,N,0.0,0.0
1479515095.4,286046606.9,N,0.0,0.0
1479515115.3,286046604.6,N,0.0,0.0
1479515135.1,286046607.0,N,0.0,0.0
1479515155.8,286046607.4,N,0.0,0.0
1479515175.7,286046606.3,N,0.0,0.0
1479515195.5,286046607.5,N,0.0,0.0
1479515215.4,286046607.2,N,0.0,0.0
1479515235.2,286046607.3,N,0.0,0.0
1479515255.0,286046606.7,N,0.0,0.0
1479515255.9,286046606.7,N,0.0,0.0
1479515275.8,286046604.5,N,0.0,0.0
1479515295.6,286046604.6,N,0.0,0.0
1479515315.4,286046604.9,N,0.0,0.0
1479515335.3,286046604.5,N,0.0,0.0
1479515355.1,286046604.9,N,0.0,0.0
1479515375.9,286046605.0,N,0.0,0.0
1479515395.7,286046604.6,N,0.0,0.0
1479515415.5,286046606.6,N,0.0,0.0
1479515435.4,286046606.3,N,0.0,0.0
1479515455.2,286046606.6,N,0.0,0.0
1479515475.0,286046606.6,N,0.0,0.0
1479515476.0,286046606.6,N,0.0,0.0
1479515495.8,286046609.1,N,0.0,0.0
1479515515.6,286046606.6,N,0.0,0.0
1479515535.5,286046609.1,N,0.0,0.0
1479515555.3,286046606.2,N,0.0,0.0
1479515575.1,286046608.4,N,0.0,0.0
1479515595.9,286046608.8,N,0.0,0.0
1479515615.7,286046608.8,N,0.0,0.0
1479515635.6,286046608.7,N,0.0,0.0
1479515655.4,286046608.5,N,0.0,0.0
1479515675.2,286046608.7,N,0.0,0.0
1479515695.1,286046608.4,N,0.0,0.0
1479515696.0,286046608.4,N,0.0,0.0
1479515715.8,286046608.6,N,0.0,0.0
1479515735.6,286046610.8,N,0.0,0.0
1479515755.5,286046607.9,N,0.0,0.0
1479515775.3,286046607.7,N,0.0,0.0
1479515795.2,286046608.1,N,0.0,0.0
1479515815.9,286046610.7,N,0.0,0.0
1479515835.7,286046607.7,N,0.0,0.0
1479515855.6,286046610.8,N,0.0,0.0
1479515875.4,286046610.7,N,0.0,0.0
1479515895.2,286046610.5,N,0.0,0.0
1479515915.1,286046608.1,N,0.0,0.0
1479515916.0,286046608.1,N,0.0,0.0
1479515935.8,286046607.8,N,0.0,0.0
1479515955.7,286046607.7,N,0.0,0.0
1479515975.5,286046610.1,N,0.0,0.0
1479515995.3,286046610.5,N,0.0,0.0
1479516015.2,286046610.4,N,0.0,0.0
1479516035.0,286046610.8,N,0.0,0.0
1479516035.9,286046610.8,N,0.0,0.0
1479516055.8,286046610.8,N,0.0,0.0
1479516075.6,286046608.2,N,0.0,0.0
1479516095.4,286046610.4,N,0.0,0.0
1479516115.3,286046607.7,N,0.0,0.0
1479516135.1,286046610.8,N,0.0,0.0
1479516155.8,286046607.9,N,0.0,0.0
1479516175.7,286046608.1,N,0.0,0.0
1479516195.5,286046607.7,N,0.0,0.0
1479516215.4,286046610.2,N,0.0,0.0
1479516235.2,286046610.3,N,0.0,0.0
1479516255.0,286046609.9,N,0.0,0.0
1479516255.9,286046609.9,N,0.0,0.0
1479516275.8,286046610.2,N,0.0,0.0
1479516295.6,286046610.1,N,0.0,0.0
1479516315.5,286046607.7,N,0.0,0.0
1479516335.3,286046610.4,N,0.0,0.0
1479516355.1,286046607.7,N,0.0,0.0
1479516375.9,286046610.4,N,0.0,0.0
1479516395.7,286046608.1,N,0.0,0.0
1479516415.5,286046608.1,N,0.0,0.0
1479516435.4,286046608.1,N,0.0,0.0
1479516455.2,286046610.4,N,0.0,0.0
1479516475.1,286046608.2,N,0.0,0.0
1479516476.0,286046608.2,N,0.0,0.0
1479516495.8,286046607.9,N,0.0,0.0
1479516515.6,286046608.1,N,0.0,0.0
1479516535.5,286046610.3,N,0.0,0.0
1479516555.3,286046610.6,N,0.0,0.0
1479516575.1,286046609.6,N,0.0,0.0
1479516595.9,286046609.8,N,0.0,0.0
1479516615.7,286046611.9,N,0.0,0.0
1479516635.6,286046609.5,N,0.0,0.0
1479516655.4,286046609.4,N,0.0,0.0
1479516675.2,286046612.0,N,0.0,0.0
1479516695.1,286046611.4,N,0.0,0.0
1479516696.0,286046611.4,N,0.0,0.0
1479516715.8,286046612.2,N,0.0,0.0
1479516735.7,286046612.1,N,0.0,0.0
1479516755.5,286046611.6,N,0.0,0.0
1479516775.3,286046613.5,N,0.0,0.0
1479516795.2,286046611.0,N,0.0,0.0
1479516815.0,286046611.3,N,0.0,0.0
1479516815.9,286046611.3,N,0.0,0.0
1479516835.7,286046614.0,N,0.0,0.0
1479516855.6,286046613.4,N,0.0,0.0
1479516875.4,286046613.6,N,0.0,0.0
1479516895.3,286046614.0,N,0.0,0.0
1479516915.1,286046613.5,N,0.0,0.0
1479516916.0,286046613.5,N,0.0,0.0
1479516935.8,286046612.8,N,0.0,0.0
1479516955.7,286046613.7,N,0.0,0.0
1479516975.5,286046613.7,N,0.0,0.0
1479516995.4,286046613.3,N,0.0,0.0
1479517015.2,286046612.6,N,0.0,0.0
1479517035.0,286046612.8,N,0.0,0.0
1479517035.9,286046612.8,N,0.0,0.0
1479517055.8,286046612.8,N,0.0,0.0
1479517075.6,286046612.6,N,0.0,0.0
1479517095.4,286046615.3,N,0.0,0.0
1479517115.3,286046615.4,N,0.0,0.0
1479517135.1,286046615.3,N,0.0,0.0
1479517155.9,286046614.8,N,0.0,0.0
1479517175.7,286046614.5,N,0.0,0.0
1479517195.5,286046615.2,N,0.0,0.0
